Voltar ao catálogo

COSMOS 2251 DEB

AtivoLEO
NORAD 36614·DEBRIS·🇷🇺 Russia

Lançado Jun 16, 1993 de Plesetsk Cosmodrome

Loading…

Próximas Passagens (próximas 24 horas)

TLE

AtualizadoSource: Space-Track

Época: Sep 13, 2026, 01:08 UTC

1 36614U 93036BEC 26256.04772946  .00002757  00000-0  54318-3 0  9996
2 36614  74.0241   9.0860 0015080   9.0807 351.0629 14.62965049696217

Acompanhe COSMOS 2251 DEB em tempo real com AllMySat

Download on the App Store